Flag for Venezuela Weather past 2 weeks in Barquisimeto, Venezuela

Now
81 °F

Scattered clouds.


Feels Like: 82 °F
Forecast: 67 / 95 °F
Wind: 14 mph from Southeast

Location: Barquisimeto Airport

Current Time: Mar 29, 2015 at 12:29:17 PM

Latest Report: Mar 29, 2015 at 11:30 AM


Visibility: N/A

Pressure: 30.09 "Hg

Humidity: 58%

Dew point: 64 °F

Location of BarquisimetoLocation

Historic Weather in Barquisimeto — Graph

°F

Barquisimeto temperature yesterday

Maximum temperature yesterday: 90 °F (at 1:30 PM)
Minimum temperature yesterday: 72 °F (at 4:30 AM)
Average temperature yesterday: 80 °F

Past Weeks' High & Low Weather Summary

 TemperatureHumidityPressure
High95 °F (Mar 23, 2:30 PM)88% (Mar 19, 5:30 AM)30.09 "Hg (Mar 19, 5:30 AM)
Low66 °F (Mar 21, 6:30 AM)28% (Mar 26, 3:30 PM)29.89 "Hg (Mar 14, 3:30 PM)
Average79 °F61%30.02 "Hg
* Reported Mar 14 10:30 AM — Mar 29 10:30 AM, Barquisimeto, Weather by CustomWeather, © 2015

Note: Actual official high and low records may vary slightly from our data, if they occured in-between our weather recording intervals... More about our weather records

Advertising

Barquisimeto weather history for previous 24 hours

 ConditionsComfort  
Time TempWeatherWind HumidityBarometerVisibility
10:30 AM
Sun, Mar 29
77 °FScattered clouds.13 mph69%30.09 "HgN/A
9:30 AM75 °FBroken clouds.12 mph69%30.09 "HgN/A
8:30 AM73 °FPartly sunny.10 mph78%30.09 "HgN/A
7:30 AM70 °FPartly sunny.6 mph83%30.07 "HgN/A
6:30 AM70 °FPartly sunny.6 mph83%30.07 "HgN/A
5:30 AM70 °FPassing clouds.5 mph83%30.07 "HgN/A
10:30 PM
Sat, Mar 28
73 °FPassing clouds.5 mph78%30.07 "HgN/A
9:30 PM73 °FPassing clouds.8 mph83%30.07 "HgN/A
8:30 PM75 °FPassing clouds.7 mph78%30.04 "HgN/A
7:30 PM77 °FPassing clouds.8 mph74%30.01 "HgN/A
6:30 PM81 °FPassing clouds.13 mph62%29.98 "HgN/A
5:30 PM84 °FScattered clouds.12 mph55%29.98 "HgN/A
4:30 PM90 °FScattered clouds.12 mph46%29.98 "HgN/A
3:30 PM90 °FPassing clouds.9 mph46%29.98 "HgN/A
2:30 PM90 °FPassing clouds.12 mph46%30.01 "HgN/A
1:30 PM90 °FPassing clouds.10 mph49%30.04 "HgN/A
12:30 PM86 °FScattered clouds.12 mph55%30.07 "HgN/A
Weather by CustomWeather, © 2015

See weather overviewHow to use our weather pages